一网星座-0512星 (ONEWEB-0512 )

导读 | 豆包AI

ONEWEB-0512是英国OneWeb卫星星座中的一颗低轨通信卫星,于2022年10月22日发射入轨。作为全球卫星互联网组网计划的组成部分,它运行在约1200公里的近地轨道,采用Ku波段通信技术,单星可提供至少每秒8千兆位吞吐量,为全球用户提供宽带互联网接入服务,助力OneWeb实现全球覆盖的通信网络布局,卫星设计寿命约7年。

基本信息
目录编号:
54130
目录名称:
ONEWEB-0512
国际标识:
2022-138T
轨道中心:
EARTH
卫星名称:
一网星座-0512星
卫星全名:
一网星座-0512星 (ONEWEB-0512 )
卫星状态:
在轨 (已飞行1239 天)
发射日期:
2022-10-22 UTC
国别 :
英国 (GB)
星等 :
--
轨道信息
数据来源 国际轨道数据
星历时间: 2026-03-14T06:20:21+0800
10小时前
查看轨道信息
半长轴: 7563.912km
偏心率: 0.0001606
轨道倾角: 87.922°
近地点辐角 94.268°
升交点赤经 323.957°
平近点角 265.863°
近地点: 1184.56km
远地点: 1186.99km
周期: 109.114分钟
每日圈数: 13.19724
详细信息
平衡模式:
三轴稳定
覆盖范围:
全球
运营商:
一网卫星公司
运营商所在国:
英国
制造商(研发单位):
一网卫星公司
制造商所在国:
英国
使用方式:
暂无
卫星简介
OneWeb卫星网络由648颗重约125公斤的微型卫星组成,运行在1200公里的轨道上。 每颗卫星都能够提供至少每秒8千兆位的吞吐量,以使用其高吞吐量的Ku频段有效载荷为家庭和移动平台提供互联网接入。该卫星仍在工作。
2D轨道图
3D轨道图
轨道高度分析图
轨道倾角分析图
轨道综合分析图
查看轨道综合分析图